• In Romania
  • List of Countries
  • For 7 days
  • Water Temperature
  • Satellite Maps
  • Weather Map
  • Weather Widgets
  • user-avatar
    Login

    Hourly Weather Passo Fundo

    Today, 20 June, Wednesday

    Time Temperature Precipitation Wind Pressure Humidity
    00:00 +10°C° 0 mm 2 mps 711 mmHg 78%
    01:00 +10°C° 0 mm 2 mps 711 mmHg 80%
    02:00 +9°C° 0 mm 2 mps 711 mmHg 82%
    03:00 +9°C° 0 mm 2 mps 711 mmHg 86%
    04:00 +9°C° 0 mm 2 mps 711 mmHg 87%
    05:00 +9°C° 0 mm 2 mps 711 mmHg 88%
    06:00 +9°C° 0 mm 2 mps 711 mmHg 89%
    07:00 +10°C° 0 mm 2 mps 711 mmHg 87%
    08:00 +12°C° 0 mm 2 mps 711 mmHg 84%
    09:00 +13°C° 0 mm 2 mps 711 mmHg 82%
    10:00 +16°C° 0 mm 2 mps 711 mmHg 76%
    11:00 +18°C° 0 mm 2 mps 711 mmHg 70%
    12:00 +20°C° 0 mm 3 mps 711 mmHg 64%
    13:00 +21°C° 0 mm 2 mps 711 mmHg 61%
    14:00 +23°C° 0 mm 2 mps 711 mmHg 58%
    15:00 +23°C° 0 mm 2 mps 710 mmHg 55%
    16:00 +20°C° 0 mm 2 mps 710 mmHg 64%
    17:00 +19°C° 0 mm 1 mps 709 mmHg 72%
    18:00 +16°C° 0 mm 1 mps 709 mmHg 80%
    19:00 +16°C° 0 mm 1 mps 709 mmHg 82%
    20:00 +15°C° 0 mm 1 mps 709 mmHg 83%
    21:00 +14°C° 0 mm 1 mps 709 mmHg 85%
    22:00 +14°C° 0 mm 2 mps 709 mmHg 86%
    23:00 +14°C° 0 mm 2 mps 709 mmHg 87%

    Tomorrow, 21 June, Thursday

    Time Temperature Precipitation Wind Pressure Humidity
    00:00 +14°C° 0 mm 2 mps 709 mmHg 89%
    01:00 +13°C° 0 mm 2 mps 708 mmHg 90%
    02:00 +13°C° 0 mm 2 mps 708 mmHg 91%
    03:00 +13°C° 0 mm 2 mps 708 mmHg 92%
    04:00 +13°C° 0 mm 2 mps 708 mmHg 92%
    05:00 +13°C° 0 mm 2 mps 708 mmHg 93%
    06:00 +13°C° 0 mm 2 mps 708 mmHg 94%
    07:00 +13°C° 0 mm 3 mps 708 mmHg 91%
    08:00 +14°C° 0 mm 3 mps 709 mmHg 89%
    09:00 +16°C° 0 mm 3 mps 709 mmHg 86%
    10:00 +18°C° 0.1 mm 4 mps 710 mmHg 80%
    11:00 +20°C° 0.1 mm 5 mps 710 mmHg 74%
    12:00 +22°C° 0.1 mm 5 mps 710 mmHg 67%
    13:00 +22°C° 0.1 mm 5 mps 709 mmHg 66%
    14:00 +22°C° 0.1 mm 5 mps 709 mmHg 64%
    15:00 +23°C° 0.1 mm 5 mps 708 mmHg 62%
    16:00 +21°C° 0.2 mm 5 mps 708 mmHg 69%
    17:00 +20°C° 0.2 mm 4 mps 708 mmHg 76%
    18:00 +18°C° 0.2 mm 3 mps 708 mmHg 84%
    19:00 +17°C° 0.2 mm 3 mps 708 mmHg 87%
    20:00 +17°C° 0.2 mm 2 mps 709 mmHg 90%
    21:00 +16°C° 0.2 mm 2 mps 709 mmHg 93%
    22:00 +16°C° 0.1 mm 2 mps 709 mmHg 94%
    23:00 +16°C° 0.1 mm 2 mps 709 mmHg 95%

    Day after tomorrow, 22 June, Friday

    Time Temperature Precipitation Wind Pressure Humidity
    00:00 +15°C° 0.1 mm 2 mps 709 mmHg 97%
    01:00 +15°C° 0.1 mm 2 mps 709 mmHg 97%
    02:00 +14°C° 0.1 mm 2 mps 709 mmHg 97%
    03:00 +14°C° 0.1 mm 2 mps 709 mmHg 97%
    04:00 +13°C° 0 mm 2 mps 709 mmHg 97%
    05:00 +13°C° 0 mm 1 mps 708 mmHg 97%
    06:00 +12°C° 0 mm 1 mps 708 mmHg 97%
    07:00 +13°C° 0 mm 1 mps 708 mmHg 95%
    08:00 +13°C° 0 mm 1 mps 709 mmHg 94%
    09:00 +14°C° 0 mm 1 mps 709 mmHg 92%
    10:00 +16°C° 0 mm 2 mps 709 mmHg 86%
    11:00 +18°C° 0 mm 2 mps 709 mmHg 80%
    12:00 +19°C° 0 mm 2 mps 709 mmHg 74%
    13:00 +20°C° 0 mm 2 mps 708 mmHg 70%
    14:00 +21°C° 0 mm 2 mps 708 mmHg 66%
    15:00 +23°C° 0 mm 2 mps 707 mmHg 62%
    16:00 +20°C° 0 mm 2 mps 707 mmHg 69%
    17:00 +20°C° 0 mm 1 mps 706 mmHg 76%
    18:00 +18°C° 0 mm 1 mps 706 mmHg 84%
    19:00 +18°C° 0 mm 1 mps 706 mmHg 86%
    20:00 +16°C° 0 mm 2 mps 706 mmHg 89%
    21:00 +16°C° 0 mm 2 mps 706 mmHg 92%
    22:00 +15°C° 0 mm 2 mps 706 mmHg 92%
    23:00 +15°C° 0 mm 2 mps 706 mmHg 93%

    23 June, Saturday

    Time Temperature Precipitation Wind Pressure Humidity
    00:00 +14°C° 0 mm 3 mps 706 mmHg 93%
    01:00 +14°C° 0 mm 3 mps 706 mmHg 93%
    02:00 +14°C° 0 mm 3 mps 705 mmHg 93%
    03:00 +13°C° 0 mm 3 mps 705 mmHg 93%
    04:00 +13°C° 0 mm 3 mps 705 mmHg 93%
    05:00 +13°C° 0 mm 3 mps 705 mmHg 92%
    06:00 +13°C° 0 mm 3 mps 705 mmHg 92%
    07:00 +14°C° 0 mm 4 mps 705 mmHg 88%
    08:00 +15°C° 0 mm 4 mps 705 mmHg 84%
    09:00 +17°C° 0 mm 4 mps 706 mmHg 80%
    10:00 +17°C° 0 mm 5 mps 706 mmHg 75%
    11:00 +20°C° 0 mm 5 mps 706 mmHg 69%
    12:00 +22°C° 0 mm 6 mps 706 mmHg 64%
    13:00 +22°C° 0 mm 6 mps 705 mmHg 62%
    14:00 +23°C° 0 mm 6 mps 705 mmHg 60%
    15:00 +24°C° 0 mm 6 mps 705 mmHg 58%
    16:00 +22°C° 0 mm 5 mps 704 mmHg 62%
    17:00 +21°C° 0 mm 4 mps 704 mmHg 67%
    18:00 +19°C° 0 mm 4 mps 704 mmHg 72%
    19:00 +19°C° 0 mm 4 mps 705 mmHg 73%
    20:00 +19°C° 0 mm 4 mps 706 mmHg 74%
    21:00 +18°C° 0 mm 4 mps 706 mmHg 76%
    22:00 +18°C° 0.2 mm 4 mps 707 mmHg 81%
    23:00 +17°C° 0.2 mm 4 mps 707 mmHg 87%

    24 June, Sunday

    Time Temperature Precipitation Wind Pressure Humidity
    00:00 +15°C° 0.2 mm 4 mps 708 mmHg 92%
    01:00 +14°C° 0.2 mm 4 mps 708 mmHg 91%
    02:00 +12°C° 0.2 mm 4 mps 708 mmHg 91%
    03:00 +10°C° 0.2 mm 5 mps 708 mmHg 90%
    04:00 +9°C° 0.7 mm 5 mps 709 mmHg 90%
    05:00 +8°C° 0.7 mm 5 mps 709 mmHg 90%
    06:00 +8°C° 0.7 mm 5 mps 710 mmHg 90%
    07:00 +8°C° 0.6 mm 4 mps 711 mmHg 89%
    08:00 +8°C° 0.6 mm 3 mps 711 mmHg 89%
    09:00 +8°C° 0.6 mm 3 mps 712 mmHg 89%
    10:00 +9°C° 0 mm 2 mps 712 mmHg 85%
    11:00 +10°C° 0 mm 2 mps 712 mmHg 81%
    12:00 +10°C° 0 mm 2 mps 712 mmHg 76%
    13:00 +12°C° 0 mm 2 mps 711 mmHg 72%
    14:00 +12°C° 0 mm 2 mps 711 mmHg 67%
    15:00 +13°C° 0 mm 2 mps 710 mmHg 63%
    16:00 +12°C° 0 mm 2 mps 710 mmHg 67%
    17:00 +10°C° 0 mm 2 mps 710 mmHg 72%
    18:00 +8°C° 0 mm 2 mps 710 mmHg 77%
    19:00 +8°C° 0 mm 2 mps 710 mmHg 78%
    20:00 +7°C° 0 mm 2 mps 710 mmHg 80%
    21:00 +6°C° 0 mm 2 mps 710 mmHg 82%
    22:00 +6°C° 0 mm 2 mps 709 mmHg 79%
    23:00 +7°C° 0 mm 3 mps 709 mmHg 76%

    25 June, Monday

    Time Temperature Precipitation Wind Pressure Humidity
    00:00 +7°C° 0 mm 3 mps 709 mmHg 73%
    01:00 +7°C° 0 mm 2 mps 709 mmHg 75%
    02:00 +7°C° 0 mm 2 mps 708 mmHg 77%
    03:00 +7°C° 0 mm 2 mps 708 mmHg 79%
    04:00 +8°C° 0.2 mm 2 mps 708 mmHg 82%
    05:00 +9°C° 0.2 mm 1 mps 708 mmHg 85%
    06:00 +10°C° 0.2 mm 1 mps 708 mmHg 88%
    07:00 +11°C° 0.2 mm 1 mps 708 mmHg 89%
    08:00 +11°C° 0.2 mm 1 mps 708 mmHg 90%
    09:00 +12°C° 0.2 mm 1 mps 709 mmHg 91%
    10:00 +13°C° 0.3 mm 1 mps 709 mmHg 90%
    11:00 +14°C° 0.3 mm 1 mps 709 mmHg 90%
    12:00 +15°C° 0.3 mm 2 mps 709 mmHg 89%
    13:00 +15°C° 0.9 mm 1 mps 708 mmHg 91%
    14:00 +15°C° 0.9 mm 1 mps 707 mmHg 93%
    15:00 +15°C° 0.9 mm 1 mps 707 mmHg 95%
    16:00 +15°C° 1.4 mm 1 mps 707 mmHg 96%
    17:00 +14°C° 1.4 mm 1 mps 707 mmHg 97%
    18:00 +13°C° 1.4 mm 0 mps 707 mmHg 97%
    19:00 +13°C° 0.8 mm 0 mps 707 mmHg 97%
    20:00 +14°C° 0.8 mm 1 mps 707 mmHg 97%
    21:00 +14°C° 0.8 mm 1 mps 707 mmHg 97%
    22:00 +14°C° 1 mm 1 mps 707 mmHg 97%
    23:00 +14°C° 1 mm 1 mps 707 mmHg 97%
    Show more